Location: Mohawk View
(42.7837°N, 73.7885°W)
Time: 08:30:31
(UTC+00:00)

Cosmos 676 Rocket - Pass Details

Date: 17 June 2021
Orbit: 754 x 784 km, 74.0° (Epoch: 27 July)

Event Time Altitude Azimuth Distance (km) Brightness Sun altitude
Rises 01:08:24 0° 342° (NNW) 3,277 8.4 -5.6°
Reaches altitude 10° 01:10:50 10° 346° (NNW) 2,348 7.4 -6.0°
Maximum altitude 01:16:08 62° 67° (ENE) 880 4.2 -6.7°
Drops below altitude 10° 01:21:23 10° 149° (SSE) 2,335 5.9 -7.4°
Enters shadow 01:21:54 - 150° (SSE) 2,527 6.1 -7.5°
